Regional Weather Roundup
Issued by NWS

Home | Current Version | Previous Version | Graphics & Text | Print | Product List | Glossary On
Versions: 1 2 3 4 5 6 7 8 9 10 11 12 13 14 15 16 17 18 19 20 21 22 23 24 25 26 27 28 29 30 31 32 33 34 35 36 37 38 39 40 41 42 43 44 45 46 47 48 49 50
000
ASUS43 KOAX 270910
RWRNE

WEATHER ROUNDUP FOR NEBRASKA
NATIONAL WEATHER SERVICE OMAHA NE
300 AM CST THU NOV 27 2014

NOTES: SATELLITE DATA IS BEING USED TO AUGMENT CLOUD COVER ABOVE
       12000 FEET.
       "FAIR" INDICATES FEW OR NO CLOUDS BELOW 12,000 FEET WITH NO
       SIGNIFICANT WEATHER AND/OR OBSTRUCTIONS TO VISIBILITY.

  * THESE STATIONS DO NOT REPORT WEATHER SUCH AS RAIN...SNOW OR FOG.

NEZ001>004-019>022-054>056-271000-
NEBRASKA PANHANDLE

CITY           SKY/WX    TMP DP  RH WIND       PRES   REMARKS
SCOTTSBLUFF    CLEAR     16  15  96 CALM      30.22F
ALLIANCE       PTCLDY    24  21  88 S7        30.21F WCI  16
CHADRON        CLEAR    N/A N/A N/A CALM      30.22S
KIMBALL        PTCLDY    23  21  91 W10       30.19S WCI  12
SIDNEY         CLEAR     19  16  88 S3        30.23F
$$

NEZ057>060-069>072-079>082-271000-
SOUTHWEST NEBRASKA

CITY           SKY/WX    TMP DP  RH WIND       PRES   REMARKS
NORTH PLATTE   CLOUDY    25  19  78 E3        30.35R
IMPERIAL       PTCLDY    23  20  88 S8        30.32S WCI  14
LEXINGTON      MOCLDY    24  18  78 S3        30.40R
MCCOOK         CLEAR     25  17  72 SE5       30.37F WCI  19
OGALLALA       FOG      N/A N/A N/A CALM      30.31S VSB 3/4
$$

NEZ005>010-023>029-035>040-094-271000-
NORTH CENTRAL NEBRASKA

CITY           SKY/WX    TMP DP  RH WIND       PRES   REMARKS
VALENTINE      CLOUDY    23  18  81 E8        30.33F WCI  14
AINSWORTH      CLOUDY    22  17  81 E6        30.34R WCI  15
BROKEN BOW     CLOUDY    22  16  78 S7        30.37R WCI  13
O`NEILL        CLOUDY    17   9  70 NE7       30.42S WCI   7
ORD            CLOUDY    16  12  84 CALM      30.40S
THEDFORD       CLOUDY    28  21  75 S6        30.32S WCI  22
$$

NEZ041-046>049-061>064-073>077-083>087-271000-
SOUTH CENTRAL NEBRASKA

CITY           SKY/WX    TMP DP  RH WIND       PRES   REMARKS
GRAND ISLAND   CLEAR     15  11  83 E6        30.43F WCI   6
AURORA         CLEAR     16  11  81 NE6       30.43F WCI   7
HASTINGS       CLOUDY    19  15  84 NE7       30.41S WCI  10
HEBRON         CLEAR     18  11  75 CALM      30.47R
HOLDREGE       CLOUDY    23  16  74 CALM      30.40R
KEARNEY *      MOCLDY    19  14  79 CALM      30.42R
YORK           CLEAR     14  10  85 NE6       30.46S WCI   5
$$

NEZ011>018-030>034-042>045-271000-
NORTHEAST NEBRASKA

CITY           SKY/WX    TMP DP  RH WIND       PRES   REMARKS
NORFOLK        CLOUDY    16   7  67 N13       30.45S WCI   2
ALBION         CLOUDY    19  10  68 CALM      30.44R
BLAIR          MOCLDY    17  12  81 NW8       30.47S WCI   6
COLUMBUS *     MOCLDY    16   5  62 N3        30.48S
FREMONT        PTCLDY    14  11  86 W3        30.49F
TEKAMAH        CLOUDY    16  11  80 N6        30.51R WCI   7
WAYNE          CLOUDY    14   8  76 N9        30.48F WCI   2
$$

NEZ050>053-065>068-078-088>093-271000-
SOUTHEAST NEBRASKA

CITY           SKY/WX    TMP DP  RH WIND       PRES   REMARKS
LINCOLN        PTCLDY    18  11  74 NW5       30.52R WCI  11
OMAHA EPPLEY   PTCLDY    16  11  80 N8        30.52R WCI   5
BEATRICE       CLEAR     15  12  89 N8        30.47S WCI   4
FALLS CITY     CLOUDY    23  18  81 N8        30.48S WCI  14
NEBRASKA CITY  CLOUDY    21  15  77 N9        30.48R WCI  11
PLATTSMOUTH    MOCLDY    17  12  82 NW8       30.49R WCI   6
$$

NEZ044-045-051>053-067-271000-
OMAHA AREA

CITY           SKY/WX    TMP DP  RH WIND       PRES   REMARKS
OMAHA EPPLEY   PTCLDY    16  11  80 N8        30.52R WCI   5
BLAIR          MOCLDY    17  12  81 NW8       30.47S WCI   6
FREMONT        PTCLDY    14  11  86 W3        30.49F
MILLARD        PTCLDY    18  12  77 NW3       30.50S
OFFUTT AFB     PTCLDY    17  11  77 NW2       30.50R
PLATTSMOUTH    MOCLDY    17  12  82 NW8       30.49R WCI   6
WAHOO          FAIR      15  10  81 N5        30.49S WCI   7
$$



USA.gov is the U.S. government's official web portal to all federal, state and local government web resources and services.